[Iaude] MPEC F60: 2024 FV1 [a=1.71,e=0.55,i=7.7,H=27.7]
    mpec at cfa.harvard.edu 
    mpec at cfa.harvard.edu
       
    Thu Mar 21 06:29:53 EDT 2024
    
    
  
M.P.E.C. 2024-F60                                Issued 2024 March 21, 10:28 UT
     The Minor Planet Electronic Circulars contain information on unusual
         minor planets, routine data on comets and natural satellites,
         and occasional editorial announcements.  They are published
    on behalf of Division F of the International Astronomical Union by the
          Minor Planet Center, Smithsonian Astrophysical Observatory,
                          Cambridge, MA 02138, U.S.A.
			  
             Prepared using the Tamkin Foundation Computer Network
                              MPC at CFA.HARVARD.EDU
            URL https://www.minorplanetcenter.net/    ISSN 1523-6714
                                    2024 FV1                                    
Observations:
     K24F01V*1C2024 03 18.19894211 44 38.720+18 37 25.07         19.64GVEF060G96
     K24F01V 1C2024 03 18.20458311 44 48.048+18 36 51.48         19.60GVEF060G96
     K24F01V 1C2024 03 18.21023611 44 57.426+18 36 17.39         19.58GVEF060G96
     K24F01V 1C2024 03 18.21588211 45 06.984+18 35 42.32         20.34GVEF060G96
     K24F01V 1C2024 03 18.22219011 45 17.172+18 35 05.03         19.60GVEF060G96
     K24F01V 1C2024 03 18.22243511 45 17.554+18 35 03.62         19.44GVEF060G96
     K24F01V 1C2024 03 18.22267611 45 17.953+18 35 02.26         19.88GVEF060G96
     K24F01V  C2024 03 18.32572411 48 18.757+18 25 40.25         19.59GVEF060F52
     K24F01V  C2024 03 18.33827611 48 37.217+18 24 31.36         19.66GVEF060F52
     K24F01V KC2024 03 20.20966712 16 30.551+16 30 28.44         21.08GVEF060I52
     K24F01V KC2024 03 20.21369312 16 32.272+16 30 19.15         20.90GVEF060I52
     K24F01V KC2024 03 20.21772712 16 34.021+16 30 10.80         20.90GVEF060I52
     K24F01V KC2024 03 20.22176512 16 35.616+16 30 02.52         20.78GVEF060I52
     K24F01V KC2024 03 21.31957 12 23 35.30 +15 57 52.9          21.9 RVEF060691
     K24F01V KC2024 03 21.33228 12 23 38.25 +15 57 34.1          22.6 RVEF060691
     K24F01V KC2024 03 21.34499 12 23 41.22 +15 57 16.3          21.8 RVEF060691
Observer details:
691 Steward Observatory, Kitt Peak-Spacewatch.  Observer M. T. Read.  0.9-m
    f/3 reflector + CCD.
F52 Pan-STARRS 2, Haleakala.  Observers J. Herman, T. Lowe, P. Minguez, A.
    Schultz, I. Smith.  Measurers K. Chambers, T. de Boer, J. Fairlamb, H.
    Gao, M. Huber, C.-C. Lin, E. Magnier, Y. Ramanjooloo, R. Wainscoat, R.
    Weryk.  1.8-m Ritchey-Chretien + CCD.
G96 Mt. Lemmon Survey.  Observer D. Rankin.  Measurers T. Beuden, V. F.
    Carvajal, D. Fay, J. B. Fazekas, D. C. Fuls, A. R. Gibbs, A. D. Grauer, H.
    Groeller, J. K. Hogan, R. A. Kowalski, S. M. Larson, G. J. Leonard, D.
    Rankin, R. L. Seaman, F. C. Shelly, K. W. Wierzchos.  1.5-m reflector +
    10K CCD.
I52 Steward Observatory, Mt. Lemmon Station.  Observer R. A. Kowalski.
    Measurers T. Beuden, V. F. Carvajal, D. Fay, J. B. Fazekas, D. C. Fuls, A.
    R. Gibbs, A. D. Grauer, H. Groeller, J. K. Hogan, R. A. Kowalski, S. M.
    Larson, G. J. Leonard, D. Rankin, R. L. Seaman, F. C. Shelly, K. W.
    Wierzchos.  1.0-m prime focus + CCD.
Orbital elements:
2024 FV1                                                 Earth MOID = 0.0008 AU
Epoch 2024 Mar. 31.0 TT = JDT 2460400.5                 MPC                     
M  26.64014              (2000.0)            P               Q                  
n   0.44230573     Peri.  291.82081     -0.29915945     -0.95414636             
a   1.7060340      Node   175.54724     +0.91749379     -0.29062990             
e   0.5450008      Incl.    7.70487     +0.26212357     -0.07168671             
P   2.23           H   27.75          G   0.15           U   8                  
Residuals in seconds of arc
240318 G96  0.2+  0.1-    240318 G96  0.3-  0.1+    240320 I52  0.8-  0.5-
240318 G96  1.4-  0.3+    240318 F52  0.2+  0.0     240321 691  0.5+  0.1+
240318 G96  1.6-  0.3+    240318 F52  0.1+  0.0     240321 691  0.3+  0.4-
240318 G96  1.8+  0.7-    240320 I52 (0.6-  2.0+)   240321 691  0.7+  0.3+
240318 G96  0.1-  0.0     240320 I52  0.3-  0.5+
240318 G96  0.4-  0.0     240320 I52  0.5+  0.0
Ephemeris:
2024 FV1                 a,e,i = 1.71, 0.55, 8                   q = 0.7762
Date    TT    R. A. (2000) Decl.     Delta      r    Elong.  Phase     V
2024 02 20    00 43 58.6 -13 07 04   0.2169  0.8273    37.6   133.2    30.1
...
2024 03 06    01 01 40.7 -12 46 49   0.08437 0.9194    29.2   148.3    30.3
...
2024 03 14    01 53 10.1 -08 11 38   0.01810 0.9793    34.5   144.9    26.6
...
2024 03 20    12 14 30.7 +16 39 55   0.03288 1.0273   163.0    16.4    21.3
2024 03 21    12 21 49.5 +16 07 01   0.04113 1.0355   163.0    16.4    21.8
2024 03 22    12 26 39.5 +15 43 57   0.04943 1.0437   162.9    16.3    22.2
...
2024 03 28    12 38 21.7 +14 35 21   0.1000  1.0937   162.2    16.2    23.8
...
2024 04 05    12 42 38.0 +13 43 08   0.1702  1.1617   159.9    17.2    25.1
...
2024 04 20    12 46 41.7 +11 55 24   0.3145  1.2898   151.5    21.8    26.8
A. U. Tomatic                (C) Copyright 2024 MPC           M.P.E.C. 2024-F60
    
    
More information about the Iaude
mailing list